Location: PSU-Greenbush Astrophysical Observatory
(37.5140°N, 94.9880°W)
Time: 04:29:40
(UTC-06:00)

deb Explorer IX - Pass Details

Date: 25 January 2020
Orbit: 549 x 1099 km, 38.8° (Epoch: 19 February)

Event Time Altitude Azimuth Distance (km) Brightness Sun altitude
Rises 03:37:48 0° 285° (WNW) 3,886 - -45.7°
Reaches altitude 10° 03:40:48 10° 278° (W) 2,894 - -45.1°
Maximum altitude 03:47:15 38° 213° (SSW) 1,472 - -43.9°
Drops below altitude 10° 03:53:03 10° 147° (SSE) 2,603 - -42.7°
Exits shadow 03:53:58 - 143° (SE) 2,896 ? -42.5°
Sets 03:55:39 0° 139° (SE) 3,456 ? -42.2°
